Wetbulb
61.18 55.71 57.86 56.14 51.00 49.17 45.93 46.13 48.11 53.74 55.80 60.92 61.88 61.27 60.93 61.92 59.50 57.30 69.96 71.72 72.33 72.81 73.86 73.41 71.98 72.73 72.98 73.07 73.39 73.53 73.66 73.58 73.69 73.79 73.96 74.08 74.10 74.09 74.16 74.22 74.65 74.90 74.99 74.06 73.77 73.31 73.59 72.55 71.75
60.05 55.23 55.93 52.29 48.94 45.43 46.29 47.46 47.19 54.34 61.10 63.49 63.13 62.59 61.67 60.14 66.63 67.41 68.67 71.58 72.34 72.61 73.45 73.74 71.91 72.10 72.50 72.59 72.89 73.25 73.86 73.43 73.50 73.66 73.65 73.72 73.95 73.77 73.64 73.38 73.43 74.25 74.41 73.66 73.51 73.64 73.67 72.52 71.16
56.53 54.30 54.34 49.85 45.83 45.19 45.27 47.04 50.08 59.93 60.97 59.48 59.84 61.31 61.59 61.08 67.72 67.66 70.82 71.40 71.99 72.17 72.93 72.96 71.53 71.58 71.96 72.22 72.52 72.54 72.76 72.96 73.06 72.96 73.12 73.44 73.46 73.29 73.06 72.64 73.11 74.20 73.91 73.74 73.76 73.72 73.45 71.69 70.34
55.38 54.63 51.38 49.02 45.87 47.51 48.04 49.55 57.26 59.76 59.78 59.76 60.85 58.94 65.80 66.29 67.61 69.30 70.99 71.30 70.97 70.87 71.60 70.77 70.30 71.69 72.29 72.24 72.10 72.05 71.77 71.63 72.14 72.76 73.28 72.92 72.73 72.87 72.90 72.61 72.93 73.12 73.34 73.32 73.27 73.86 72.75 70.68 69.80
53.23 51.76 48.52 46.50 45.92 47.61 49.43 50.34 60.11 58.15 56.97 58.62 59.43 60.05 60.58 63.06 65.14 67.10 68.74 69.25 68.18 68.29 70.31 71.02 69.28 70.37 71.25 71.90 71.91 71.56 71.52 71.59 72.01 72.29 72.45 72.87 73.12 72.93 72.75 72.28 72.29 72.78 72.77 73.15 73.35 73.42 72.42 70.88 69.59
52.20 50.61 46.51 44.76 45.53 47.85 49.42 51.94 58.71 56.49 54.92 57.37 61.81 59.07 58.18 61.57 63.54 62.05 64.48 64.74 66.04 66.94 68.26 70.32 70.45 70.33 70.24 70.27 70.14 69.86 69.95 70.08 70.17 70.50 71.17 71.88 71.96 71.92 72.20 72.17 72.18 72.01 72.00 72.00 71.78 71.20 71.18 70.96 70.33
49.81 48.05 45.16 44.52 45.08 46.27 49.04 51.30 56.82 55.41 55.47 57.73 59.49 53.72 58.61 59.41 60.00 60.91 62.13 63.27 64.00 65.05 67.09 68.90 70.43 70.26 69.08 68.58 68.15 67.84 68.29 68.53 68.60 69.08 69.62 69.61 69.68 70.24 70.43 69.95 70.07 70.32 70.80 70.37 70.06 69.93 70.01 70.41 70.42
49.24 48.67 44.00 44.77 44.63 45.68 49.67 50.86 53.62 55.48 52.42 55.55 54.59 57.12 60.16 59.76 58.57 59.65 60.12 61.33 61.74 62.75 64.55 66.88 69.13 71.09 70.61 69.29 66.25 65.83 65.54 65.54 66.49 66.85 66.87 66.67 67.97 68.48 68.05 67.79 67.30 67.86 68.47 68.61 68.62 68.70 68.66 68.93 69.28
47.42 44.93 42.73 43.92 43.90 47.60 49.10 51.23 51.62 52.59 53.32 53.64 56.09 56.01 60.72 58.19 56.92 58.18 58.76 59.35 60.52 60.55 61.97 64.81 67.30 68.71 68.99 67.80 65.20 63.22 62.28 61.74 62.39 64.04 63.75 65.79 67.43 67.62 66.80 64.30 64.69 65.07 65.83 66.47 66.76 66.74 66.79 67.01 67.86
46.50 43.54 43.72 45.61 46.73 48.31 48.03 50.74 51.02 51.57 51.94 52.30 54.92 57.84 59.17 56.30 56.17 57.68 58.42 57.24 57.74 58.54 59.38 62.23 65.04 66.30 66.81 64.18 62.39 60.96 59.39 59.04 60.10 61.18 62.59 64.07 65.62 64.72 63.78 61.36 61.04 62.21 62.82 64.54 65.16 65.65 66.09 67.34 69.80
43.60 43.81 44.61 45.78 46.75 48.38 47.87 48.06 49.37 50.60 50.11 53.78 54.22 56.18 57.27 56.44 55.77 55.14 54.91 56.22 56.11 56.21 57.74 59.97 62.47 64.34 64.38 62.17 60.06 57.51 55.95 57.41 57.45 58.02 59.25 60.70 61.05 61.23 59.19 58.29 58.06 59.04 59.26 60.65 63.16 64.33 65.85 67.24 67.90
44.28 45.39 45.39 46.31 46.71 47.49 47.37 48.30 49.49 51.35 52.28 53.79 57.65 58.59 56.92 55.64 54.13 53.63 52.94 52.82 53.40 54.76 56.03 57.91 60.31 60.42 59.99 59.14 57.38 56.57 55.55 55.05 54.73 54.78 56.42 57.43 57.47 57.12 55.81 54.17 53.79 53.95 54.69 56.96 59.86 60.35 61.74 65.17 65.63
44.17 45.05 46.86 47.63 47.48 47.12 47.42 47.24 47.74 49.58 51.50 56.44 57.28 56.32 56.25 54.98 53.66 52.69 52.56 52.11 52.48 52.89 54.02 56.32 58.49 57.51 55.95 54.62 54.00 53.83 53.30 52.87 53.09 53.23 53.31 53.82 53.49 52.71 53.25 53.01 53.40 53.42 52.72 53.69 54.84 56.35 57.60 59.54 61.59
45.35 45.45 46.13 46.92 47.44 47.14 46.47 46.38 47.30 48.65 52.64 53.97 54.87 55.44 55.08 54.11 52.81 51.13 50.84 50.57 51.41 51.87 53.51 55.40 56.54 55.45 54.04 53.16 52.88 52.22 52.14 51.89 51.57 50.98 51.18 51.31 50.67 50.54 50.16 50.05 50.20 50.20 50.62 51.00 51.65 52.20 54.08 55.58 57.30
45.67 43.35 45.01 45.75 47.16 46.97 47.23 45.36 45.26 49.53 52.75 52.85 54.32 54.44 53.27 52.51 51.08 51.04 50.91 50.16 50.85 51.54 51.94 54.31 54.41 53.49 52.78 51.97 51.42 50.92 50.48 50.06 49.08 48.03 48.01 48.38 48.61 48.52 48.44 48.00 48.09 48.35 48.85 49.20 49.77 49.96 51.37 52.44 53.86
42.17 41.63 38.95 43.15 44.20 45.65 46.60 42.38 47.03 49.76 51.27 51.66 52.80 52.36 51.85 50.91 50.84 50.71 49.92 49.68 50.16 50.78 51.17 53.51 52.20 51.86 51.25 50.26 49.71 48.90 48.39 47.43 46.64 46.43 46.58 45.90 46.07 46.38 46.44 46.12 45.93 46.73 46.96 47.01 47.10 47.34 48.12 49.21 50.85
38.40 35.88 36.63 39.63 44.50 43.69 44.02 42.16 44.95 47.10 50.52 50.86 51.25 51.32 50.84 49.90 49.64 49.39 48.93 48.97 49.05 49.45 50.58 50.96 51.23 50.17 49.13 48.47 47.87 47.28 46.65 45.41 44.69 44.48 44.21 44.49 44.32 44.64 44.97 44.69 44.59 45.52 45.32 45.40 45.10 45.69 45.92 46.63 47.67
35.77 35.80 36.56 37.51 42.43 42.96 41.84 42.05 45.37 46.47 48.91 49.64 50.56 49.51 49.43 49.10 48.78 48.29 48.01 47.95 48.15 48.56 49.34 50.14 49.81 49.17 48.42 47.67 46.76 45.84 44.62 43.86 43.32 42.86 42.44 42.94 43.17 42.90 43.47 43.16 43.34 43.89 43.65 43.56 43.53 43.58 45.13 45.72 44.87
37.46 37.09 37.01 39.91 42.72 42.37 42.35 42.19 44.82 45.52 46.88 47.79 47.92 47.76 48.64 48.58 48.29 47.83 47.24 47.18 46.65 47.53 48.13 49.04 48.65 48.10 47.99 47.54 46.18 44.81 42.34 42.11 41.83 41.75 41.78 41.91 42.06 42.36 42.11 42.17 42.16 42.59 41.93 41.49 42.06 42.59 42.88 43.91 44.35
39.33 37.87 37.83 40.62 42.17 41.40 42.00 41.56 44.49 43.76 45.02 48.19 48.56 48.49 49.00 47.96 46.32 45.70 45.78 45.96 46.32 45.85 46.31 47.04 47.44 47.53 47.63 47.28 45.32 44.49 42.44 41.25 40.91 41.02 40.94 41.02 40.92 41.00 40.36 40.19 40.23 40.62 40.93 41.07 41.32 41.05 40.76 42.19 43.38
38.04 36.80 36.97 37.25 41.11 41.86 40.08 39.89 41.29 44.89 45.05 45.88 49.14 49.93 50.12 48.20 46.40 44.89 44.65 44.85 44.61 44.55 44.87 45.38 45.87 46.12 46.08 44.96 43.79 42.57 41.92 41.72 41.06 39.76 39.38 39.17 39.58 39.58 39.40 39.06 39.18 39.54 40.13 39.27 40.19 39.85 39.50 39.11 41.51
35.26 40.37 39.64 38.57 37.92 34.62 39.53 34.41 40.69 42.18 43.05 42.98 45.71 47.30 48.32 48.13 47.07 45.51 44.37 43.03 43.60 42.96 43.40 43.30 43.56 43.88 44.03 44.38 43.83 43.17 42.67 40.40 39.30 38.65 38.84 38.72 38.57 38.08 38.29 38.15 38.23 38.80 38.99 38.51 38.55 38.83 38.75 38.97 37.56
38.42 42.01 40.37 39.89 37.63 35.91 36.92 34.93 39.63 40.01 40.61 43.36 43.02 45.85 46.79 46.82 46.24 45.00 44.08 43.72 43.51 42.87 42.56 42.37 42.30 42.38 42.63 42.90 42.85 41.82 39.94 39.40 38.83 38.45 37.77 37.81 37.81 37.38 36.86 37.49 37.62 37.83 37.99 37.48 36.99 37.06 36.81 37.62 36.64
42.13 39.09 37.55 36.43 36.44 30.81 35.93 36.17 37.62 40.92 41.68 41.82 42.43 44.30 45.10 44.97 45.26 44.77 44.44 43.44 42.52 42.16 41.57 41.54 41.65 41.12 41.64 41.60 41.18 40.96 39.59 38.18 37.40 37.30 36.75 36.45 36.07 36.29 36.07 36.32 36.73 36.48 36.11 35.52 35.77 35.82 35.21 35.32 35.23
39.48 36.89 31.08 28.93 28.73 29.02 37.70 34.96 38.47 40.29 42.98 43.91 44.25 44.13 44.49 44.69 43.84 43.26 41.98 41.94 41.54 40.99 40.86 41.23 41.46 39.84 40.15 40.24 39.51 39.04 37.78 37.71 37.00 36.46 35.95 35.32 34.77 34.44 33.84 34.83 34.79 34.77 34.37 34.04 34.29 34.01 33.62 33.58 32.97
37.87 36.88 32.90 25.71 26.82 31.30 33.74 31.91 37.97 42.74 43.14 42.88 42.53 44.58 43.83 43.22 43.60 43.28 42.35 42.68 42.01 40.91 40.47 40.11 39.09 37.78 37.70 37.87 37.24 37.33 37.10 36.28 36.04 35.41 34.94 34.10 33.47 32.53 33.19 33.87 34.11 33.98 33.62 33.14 33.54 33.06 32.58 32.91 32.47
37.45 33.72 39.26 32.69 31.94 29.23 33.73 35.41 39.85 42.80 42.37 41.45 41.07 41.78 41.82 42.34 42.30 42.62 43.19 43.08 42.03 40.89 38.89 39.40 38.72 37.46 37.19 37.07 35.68 35.54 36.11 35.71 34.81 34.61 34.23 33.38 33.53 31.94 32.25 32.88 33.25 33.56 32.57 32.12 32.22 31.69 30.89 31.85 32.27
38.03 39.67 31.95 32.89 24.92 23.71 31.05 31.52 34.17 39.08 41.57 41.39 40.64 41.19 42.07 42.85 42.57 43.19 43.80 42.50 41.80 40.88 41.08 40.39 39.10 37.13 36.84 36.70 36.25 35.59 35.69 34.99 34.66 34.14 32.30 31.73 31.67 31.66 31.57 31.79 31.60 30.03 29.69 30.10 30.74 30.40 30.78 31.05 30.97
35.11 33.45 35.45 34.78 32.56 26.84 26.18 31.28 37.61 38.82 42.14 42.28 42.53 42.47 42.70 42.97 43.15 43.75 44.60 42.90 41.52 41.15 39.46 38.42 37.46 36.33 35.97 36.29 36.19 34.54 34.28 34.18 33.78 32.71 31.54 31.02 30.88 30.64 30.28 30.55 29.53 28.36 28.12 28.51 28.64 28.41 28.37 29.09 28.99
36.20 32.82 33.11 29.60 28.40 30.45 30.25 31.47 38.40 39.47 42.82 41.33 41.84 44.28 44.48 43.68 43.65 43.98 42.66 40.90 40.04 39.80 39.24 37.46 37.21 36.68 37.46 36.71 34.33 34.17 33.28 31.93 32.78 32.03 30.76 30.44 29.90 30.50 30.24 29.29 29.25 28.37 27.89 28.22 27.87 27.34 27.62 27.12 27.07
MSLP
1011.54 1011.53 1011.47 1011.09 1011.41 1010.77 1009.98 1009.94 1009.67 1009.40 1009.62 1009.87 1009.92 1010.01 1010.45 1011.01 1011.37 1012.55 1013.21 1013.20 1013.28 1013.65 1013.94 1014.10 1014.41 1014.72 1014.80 1014.54 1014.75 1014.83 1015.06 1015.54 1015.56 1015.61 1015.65 1015.68 1015.85 1015.98 1016.12 1016.31 1016.47 1016.58 1016.60 1016.69 1016.80 1016.87 1016.95 1017.10 1017.34
1011.41 1011.44 1011.19 1011.29 1010.97 1010.16 1009.85 1009.61 1009.50 1009.56 1009.84 1010.13 1010.18 1010.49 1010.87 1011.78 1012.14 1012.80 1013.16 1013.72 1013.68 1013.91 1014.17 1014.33 1014.59 1014.68 1014.82 1014.76 1015.08 1015.20 1015.27 1015.86 1015.97 1015.98 1016.07 1016.07 1016.21 1016.35 1016.45 1016.57 1016.65 1016.68 1016.77 1016.76 1016.85 1016.93 1017.02 1017.24 1017.40
1011.26 1011.23 1011.17 1011.24 1011.00 1010.01 1009.59 1009.47 1009.44 1009.77 1010.05 1010.11 1010.57 1011.11 1011.71 1012.73 1012.74 1013.37 1014.00 1014.13 1014.05 1014.24 1014.40 1014.63 1014.71 1014.81 1015.14 1014.92 1015.25 1015.82 1015.50 1015.91 1016.34 1016.36 1016.42 1016.50 1016.62 1016.68 1016.76 1016.83 1016.93 1016.99 1017.01 1016.96 1016.91 1016.97 1017.07 1017.17 1017.33
1011.10 1011.13 1012.03 1011.29 1010.59 1010.28 1009.81 1009.63 1009.64 1010.06 1010.22 1010.17 1010.75 1011.74 1012.91 1014.11 1013.84 1013.93 1014.40 1014.35 1014.55 1014.80 1014.72 1014.93 1014.90 1014.89 1015.14 1015.05 1015.36 1015.84 1015.84 1016.04 1016.30 1016.46 1016.64 1016.73 1016.79 1016.86 1016.90 1017.05 1017.14 1017.16 1017.18 1017.19 1017.13 1017.17 1017.24 1017.23 1017.22
1011.44 1011.40 1011.31 1010.99 1010.57 1010.30 1010.14 1009.79 1009.79 1009.91 1010.39 1010.64 1011.09 1012.26 1013.64 1014.68 1014.95 1014.83 1014.79 1014.85 1014.93 1015.07 1015.07 1015.14 1015.14 1015.11 1015.15 1015.20 1015.69 1015.92 1015.98 1016.17 1016.33 1016.38 1016.47 1016.60 1016.69 1016.83 1016.96 1017.10 1017.27 1017.35 1017.26 1017.32 1017.29 1017.31 1017.37 1017.45 1017.46
1011.49 1011.65 1011.34 1010.77 1010.46 1010.23 1010.07 1009.86 1009.83 1009.93 1010.49 1011.01 1011.60 1012.60 1014.28 1015.13 1015.04 1015.23 1015.26 1015.18 1015.26 1015.42 1015.36 1015.34 1015.35 1015.33 1015.48 1015.59 1015.89 1016.02 1016.20 1016.35 1016.41 1016.51 1016.58 1016.69 1016.66 1016.71 1016.74 1016.85 1016.98 1017.12 1017.23 1017.29 1017.32 1017.24 1017.19 1017.32 1017.51
1011.36 1011.60 1011.30 1011.09 1010.44 1010.13 1009.83 1010.02 1009.63 1009.82 1010.41 1010.94 1011.62 1012.92 1014.59 1015.36 1015.58 1015.49 1015.39 1015.52 1015.68 1015.75 1015.68 1015.75 1015.67 1015.65 1015.74 1015.99 1016.18 1016.36 1016.51 1016.61 1016.63 1016.64 1016.83 1016.94 1016.96 1017.01 1017.00 1016.93 1017.01 1017.06 1017.01 1017.08 1017.08 1017.13 1017.10 1016.95 1016.92
1011.93 1011.79 1011.68 1011.03 1010.44 1009.95 1009.82 1009.78 1009.81 1009.82 1010.64 1011.22 1011.96 1012.68 1014.00 1014.86 1015.60 1015.59 1015.58 1015.68 1015.96 1016.19 1016.17 1016.14 1016.05 1015.98 1016.04 1016.31 1016.64 1016.85 1016.95 1017.03 1017.02 1016.96 1016.99 1017.06 1017.21 1017.24 1017.35 1017.31 1017.32 1017.24 1017.19 1017.09 1017.05 1017.01 1016.95 1016.84 1016.76
1011.91 1011.91 1011.49 1010.95 1010.52 1009.81 1009.83 1009.76 1010.20 1010.37 1010.55 1011.70 1012.53 1012.86 1013.41 1014.96 1015.74 1015.70 1015.64 1015.84 1016.02 1016.21 1016.36 1016.37 1016.24 1016.18 1016.18 1016.52 1017.01 1017.16 1017.34 1017.34 1017.38 1017.38 1017.52 1017.39 1017.24 1017.33 1017.40 1017.75 1017.66 1017.52 1017.42 1017.30 1017.19 1017.06 1016.90 1016.58 1016.47
1011.85 1011.88 1011.40 1010.98 1010.48 1009.94 1009.85 1009.77 1010.01 1010.34 1011.03 1012.14 1013.01 1013.74 1014.19 1014.85 1015.48 1015.65 1015.59 1015.77 1016.12 1016.41 1016.60 1016.68 1016.56 1016.44 1016.39 1016.78 1017.34 1017.57 1017.83 1018.02 1018.08 1018.00 1017.92 1017.85 1017.88 1017.90 1017.90 1018.07 1017.99 1017.88 1017.73 1017.60 1017.47 1017.14 1016.94 1016.53 1016.15
1012.04 1011.47 1011.21 1010.82 1010.76 1010.42 1010.02 1009.75 1010.02 1010.34 1010.98 1011.23 1011.89 1013.40 1014.38 1014.86 1015.45 1015.62 1016.02 1016.11 1016.57 1017.02 1017.02 1016.89 1016.75 1016.71 1016.68 1017.03 1017.54 1018.02 1018.45 1018.52 1018.61 1018.66 1018.61 1018.57 1018.48 1018.43 1018.47 1018.75 1018.52 1018.53 1018.37 1017.92 1017.40 1017.21 1017.06 1016.76 1016.41
1012.13 1011.50 1011.26 1010.96 1010.89 1010.55 1010.11 1009.97 1010.02 1010.22 1010.28 1010.63 1011.69 1012.93 1013.81 1014.59 1015.22 1015.79 1016.20 1016.69 1017.01 1017.31 1017.59 1017.75 1017.54 1017.37 1017.45 1017.49 1017.94 1018.37 1018.54 1018.89 1019.04 1019.25 1019.10 1018.89 1018.91 1019.07 1018.91 1019.16 1019.40 1019.34 1019.13 1018.69 1018.43 1018.02 1017.66 1017.03 1016.60
1012.37 1011.62 1011.31 1011.16 1011.01 1010.75 1010.44 1010.17 1010.16 1010.24 1010.62 1011.07 1011.99 1013.31 1014.07 1014.82 1015.55 1016.08 1016.55 1017.06 1017.40 1017.51 1017.96 1018.21 1018.02 1017.89 1018.04 1018.25 1018.68 1019.02 1019.32 1019.50 1019.67 1019.66 1019.81 1019.50 1019.42 1019.56 1019.32 1019.24 1019.31 1019.28 1019.46 1019.21 1019.04 1018.69 1018.18 1017.73 1017.18
1012.77 1011.94 1011.29 1010.98 1010.81 1010.49 1010.35 1010.24 1010.42 1010.50 1011.19 1011.79 1012.29 1013.05 1014.01 1014.59 1015.25 1016.20 1016.85 1017.21 1017.42 1017.82 1018.26 1018.51 1018.55 1018.56 1018.66 1018.89 1019.21 1019.48 1019.94 1020.17 1020.29 1020.48 1020.57 1020.33 1020.05 1019.98 1019.80 1019.79 1019.74 1019.76 1019.71 1019.65 1019.37 1019.04 1018.44 1017.85 1017.65
1012.75 1012.22 1011.34 1010.76 1010.52 1010.35 1010.24 1010.16 1010.21 1010.36 1011.09 1011.65 1012.35 1013.26 1014.22 1014.94 1015.83 1016.39 1017.02 1017.56 1018.01 1018.24 1018.61 1018.91 1019.15 1019.41 1019.55 1019.82 1019.89 1020.34 1020.71 1020.85 1020.99 1021.23 1021.41 1021.16 1020.86 1020.67 1020.44 1020.39 1020.27 1020.31 1019.99 1019.72 1019.52 1019.18 1018.69 1018.26 1017.64
1012.82 1012.61 1011.73 1010.61 1010.53 1010.35 1010.22 1009.19 1009.57 1010.22 1010.86 1011.39 1012.10 1012.97 1013.96 1014.99 1015.68 1016.40 1017.07 1017.61 1018.14 1018.49 1018.89 1019.31 1019.56 1019.89 1020.07 1020.41 1020.43 1020.75 1021.31 1021.60 1021.86 1021.89 1021.96 1021.96 1021.66 1021.52 1021.20 1021.01 1021.02 1020.88 1020.59 1020.32 1019.81 1019.53 1019.05 1018.36 1017.89
1013.08 1012.21 1011.98 1010.93 1010.10 1010.26 1010.35 1009.66 1009.71 1010.10 1010.56 1011.09 1011.89 1012.72 1013.83 1015.05 1015.96 1016.64 1017.29 1017.65 1018.19 1018.54 1018.83 1019.28 1019.78 1020.21 1020.61 1021.01 1021.14 1021.48 1021.97 1022.21 1022.58 1022.68 1022.47 1022.74 1022.57 1022.24 1021.73 1021.60 1021.60 1021.42 1021.08 1020.86 1020.72 1020.03 1019.63 1018.96 1018.29
1012.47 1012.46 1011.84 1011.30 1010.60 1010.29 1010.17 1009.78 1009.87 1010.29 1010.52 1010.83 1011.85 1012.93 1013.83 1014.82 1015.98 1016.96 1017.60 1018.09 1018.41 1018.77 1019.02 1019.42 1019.89 1020.47 1020.96 1021.30 1021.55 1021.73 1022.31 1022.85 1023.04 1023.15 1023.24 1023.05 1023.03 1022.78 1022.37 1022.09 1022.02 1021.64 1021.15 1021.10 1021.12 1020.88 1020.33 1019.62 1019.01
1012.88 1012.57 1012.05 1011.34 1011.04 1010.69 1009.99 1009.68 1009.14 1009.78 1010.37 1010.83 1011.52 1012.56 1013.38 1014.48 1015.98 1017.08 1017.91 1018.53 1018.90 1019.13 1019.17 1019.53 1020.04 1020.66 1020.91 1021.17 1021.21 1021.59 1022.19 1022.86 1023.12 1023.46 1023.61 1023.42 1023.58 1023.27 1022.59 1022.51 1022.55 1022.19 1021.86 1021.61 1021.22 1021.03 1020.70 1019.70 1019.51
1013.04 1012.70 1012.11 1011.40 1011.09 1011.00 1010.07 1009.18 1008.95 1009.28 1009.33 1009.61 1010.31 1011.55 1012.56 1014.12 1015.52 1016.80 1017.74 1018.34 1018.75 1019.20 1019.50 1019.81 1020.07 1020.37 1020.70 1020.99 1021.44 1021.71 1022.32 1023.13 1023.22 1023.60 1024.03 1024.06 1023.69 1023.49 1023.10 1023.10 1023.01 1022.90 1022.50 1022.28 1021.72 1021.37 1021.05 1020.59 1020.39
1012.64 1012.39 1012.17 1011.91 1011.31 1010.76 1010.19 1007.89 1008.12 1007.95 1008.54 1008.97 1009.53 1010.21 1011.37 1012.48 1014.20 1016.09 1017.27 1018.01 1018.64 1019.06 1019.50 1019.84 1020.25 1020.47 1020.76 1021.35 1021.87 1022.29 1022.69 1023.27 1023.51 1023.71 1023.74 1024.05 1023.93 1024.10 1023.95 1023.67 1023.37 1023.23 1023.13 1022.91 1022.51 1022.08 1021.93 1021.26 1020.95
1012.73 1012.02 1011.82 1011.92 1012.02 1011.18 1010.64 1007.02 1006.98 1007.46 1007.64 1008.39 1009.23 1010.14 1011.08 1012.63 1014.33 1015.59 1016.73 1017.70 1018.27 1018.94 1019.58 1020.03 1020.57 1020.88 1021.15 1021.38 1021.79 1022.01 1022.03 1022.69 1023.74 1023.91 1023.96 1024.15 1024.33 1024.46 1024.32 1024.14 1023.87 1023.79 1023.61 1023.41 1023.31 1022.53 1022.57 1022.30 1021.89
1012.29 1012.25 1012.20 1011.87 1011.93 1011.62 1010.82 1010.27 1006.13 1007.65 1007.97 1008.22 1009.10 1010.34 1011.53 1012.70 1013.89 1015.09 1016.29 1017.37 1018.34 1019.12 1019.63 1020.18 1020.59 1020.86 1021.22 1021.45 1021.46 1021.64 1022.17 1022.85 1023.69 1024.05 1024.38 1024.63 1024.77 1024.96 1024.97 1024.44 1024.37 1024.11 1024.18 1023.96 1023.59 1023.17 1023.19 1023.32 1022.91
1012.06 1012.46 1012.51 1012.68 1012.32 1011.12 1010.57 1010.62 1004.38 1006.83 1007.57 1008.66 1009.67 1010.68 1011.67 1012.59 1013.78 1015.05 1016.37 1017.40 1018.19 1019.05 1019.61 1019.99 1020.12 1020.54 1021.15 1021.63 1021.77 1021.98 1022.44 1023.03 1023.50 1023.95 1024.00 1024.44 1024.95 1025.34 1025.55 1025.29 1024.69 1024.80 1024.56 1024.47 1024.11 1023.85 1024.11 1023.89 1023.69
1011.56 1011.90 1012.36 1012.55 1012.29 1009.96 1009.69 1009.98 1006.40 1008.16 1008.80 1009.18 1010.00 1010.70 1011.67 1012.74 1013.65 1014.55 1015.52 1016.87 1018.01 1018.43 1019.36 1020.05 1020.28 1020.88 1021.45 1021.89 1022.33 1022.81 1023.66 1023.87 1024.27 1024.59 1024.54 1024.59 1025.45 1025.68 1025.93 1025.99 1025.27 1025.12 1025.10 1025.16 1024.49 1024.36 1024.81 1024.60 1024.54
1010.69 1011.01 1010.32 1010.75 1010.97 1010.06 1010.40 1008.50 1007.70 1009.04 1009.88 1010.28 1010.78 1011.31 1012.34 1013.20 1014.09 1014.68 1015.44 1016.41 1017.77 1018.58 1019.27 1020.14 1020.86 1021.38 1021.93 1022.46 1022.93 1023.06 1023.57 1024.10 1024.31 1024.85 1025.20 1025.28 1025.72 1026.39 1026.33 1026.36 1025.73 1025.69 1025.48 1025.47 1025.13 1024.42 1025.42 1024.99 1025.13
1010.22 1010.72 1010.60 1010.82 1011.08 1011.04 1009.41 1008.88 1009.09 1009.55 1010.00 1010.64 1011.55 1012.28 1012.78 1013.20 1013.82 1014.46 1015.26 1015.86 1017.59 1018.44 1019.27 1020.05 1020.85 1021.44 1022.13 1022.77 1023.36 1023.47 1024.06 1024.34 1024.56 1025.37 1025.70 1025.38 1025.67 1025.87 1026.68 1026.62 1025.74 1026.11 1026.00 1026.12 1026.08 1025.30 1025.17 1025.45 1025.28
1010.16 1010.34 1011.21 1011.39 1010.88 1010.35 1008.70 1009.31 1009.24 1009.95 1009.99 1010.78 1011.70 1012.30 1013.12 1013.57 1014.20 1014.71 1015.14 1016.02 1017.47 1018.82 1019.51 1020.38 1020.91 1021.36 1022.00 1023.18 1023.40 1023.86 1024.37 1024.65 1025.07 1025.54 1025.96 1026.06 1026.11 1026.14 1026.54 1026.50 1026.13 1026.50 1026.68 1026.65 1026.45 1026.04 1025.98 1025.51 1025.47
1011.20 1011.14 1011.51 1011.67 1011.30 1010.41 1009.83 1009.80 1010.30 1010.40 1010.76 1011.06 1011.83 1012.53 1013.21 1013.63 1013.89 1014.39 1014.99 1016.29 1017.36 1018.27 1019.27 1020.08 1020.66 1021.42 1022.07 1022.86 1023.32 1024.21 1024.64 1025.09 1025.65 1026.04 1026.43 1026.04 1026.49 1026.54 1026.97 1026.59 1026.68 1026.88 1026.93 1026.93 1026.87 1026.71 1026.57 1026.05 1025.94
1012.52 1013.10 1013.21 1013.09 1012.54 1012.12 1011.52 1010.67 1011.25 1011.01 1011.29 1011.76 1012.09 1012.48 1012.80 1013.30 1014.19 1014.97 1015.46 1016.25 1017.10 1018.04 1018.76 1019.72 1020.98 1021.52 1021.96 1022.50 1022.95 1023.96 1024.74 1025.39 1025.74 1026.29 1026.59 1026.61 1026.77 1026.78 1027.01 1026.93 1026.97 1027.10 1027.40 1027.47 1027.14 1026.83 1026.89 1026.84 1026.54
Wind_Speed
4 2 1 2 2 0 1 2 3 4 5 1 4 3 6 7 3 3 3 5 9 9 7 7 7 8 9 12 11 10 9 7 7 8 9 9 9 9 9 9 9 8 9 9 9 7 6 6 7
2 1 2 2 1 2 2 2 5 2 5 12 9 6 5 5 4 5 3 7 10 9 7 8 8 8 8 11 10 9 11 8 7 7 7 7 7 7 7 8 8 8 8 8 8 7 6 6 7
2 3 0 3 2 2 2 3 3 12 8 2 5 5 3 4 5 4 7 10 11 11 10 10 10 10 8 11 10 7 10 9 6 6 5 5 5 5 5 5 5 5 6 6 6 6 7 7 7
1 2 4 1 3 2 2 1 6 13 2 5 8 8 6 7 3 6 10 10 12 11 11 11 10 11 9 11 11 9 10 9 7 6 5 4 3 2 2 2 2 3 4 4 5 5 6 7 7
3 2 1 1 3 2 3 3 14 9 5 6 2 5 4 4 7 10 10 9 10 9 9 12 11 11 12 14 12 12 12 11 9 8 6 4 3 2 1 1 4 5 5 5 6 6 6 5 6
2 1 1 4 3 2 4 4 10 5 4 6 7 7 3 2 7 7 10 11 9 9 9 10 13 12 11 13 13 13 13 13 12 11 10 9 9 7 7 6 4 4 6 7 8 7 7 7 7
3 2 2 2 2 3 2 2 12 8 7 4 9 6 4 4 7 9 11 11 10 9 9 8 9 11 14 14 14 13 13 13 13 12 11 11 10 11 10 11 8 5 4 5 8 7 7 8 9
4 2 3 3 2 2 1 4 3 8 5 5 1 6 7 7 9 10 11 11 10 8 8 7 7 8 11 11 16 16 16 15 14 12 12 11 12 12 13 10 12 12 11 9 8 7 8 8 9
3 2 3 4 6 1 1 4 3 1 10 4 4 1 6 17 11 11 11 10 8 8 8 6 7 8 10 10 11 14 16 17 12 10 13 8 7 8 10 13 13 14 11 9 8 8 9 9 8
2 3 7 2 2 0 2 3 6 5 6 3 4 9 16 17 12 11 10 9 8 7 7 6 6 8 9 9 10 10 10 9 9 9 9 7 7 9 9 11 14 14 14 11 9 9 7 5 5
3 4 3 1 4 5 1 1 3 9 7 9 13 18 16 16 12 11 8 8 8 6 6 6 7 8 9 8 7 6 5 6 7 11 9 8 6 7 7 6 7 7 12 6 7 7 5 7 6
3 4 3 1 1 3 3 2 3 8 4 3 13 19 19 18 14 12 10 9 8 7 6 6 7 9 10 8 7 7 6 6 6 9 10 7 5 7 7 6 6 7 6 10 9 6 8 8 8
3 2 3 4 7 5 2 5 4 6 2 9 18 18 16 15 13 9 8 8 7 8 6 6 7 9 10 11 8 8 8 7 8 8 10 7 7 6 6 6 6 6 6 6 6 7 8 9 9
3 4 7 5 5 3 4 2 6 4 7 12 18 19 16 16 15 11 10 9 8 8 7 6 9 9 10 10 10 9 8 8 8 8 9 10 7 6 7 6 7 7 7 7 6 7 7 6 8
3 5 7 6 4 5 5 8 9 5 13 16 17 15 13 13 12 11 9 8 7 7 7 8 10 10 11 11 10 9 8 8 8 8 10 11 9 8 7 6 6 7 6 7 7 7 7 7 7
2 1 3 1 2 2 8 17 5 11 17 17 18 17 16 14 13 10 9 9 8 8 8 9 8 10 11 10 9 8 9 8 8 7 8 11 11 10 8 7 7 7 7 7 7 8 8 6 6
2 4 6 7 6 2 7 6 3 6 14 15 17 16 15 13 11 9 9 10 9 9 10 11 10 11 11 11 10 10 11 8 7 7 8 10 11 10 8 7 7 8 7 7 8 8 8 8 9
5 5 4 6 1 3 3 12 10 5 14 15 15 13 14 13 11 10 11 10 10 10 10 11 9 11 10 8 8 8 9 8 7 7 8 10 8 10 7 7 8 7 6 7 9 10 8 7 10
1 3 5 3 3 3 6 9 14 7 10 12 13 14 15 14 10 11 10 10 10 9 10 11 12 10 8 5 5 6 6 6 7 7 10 10 8 8 10 7 8 8 8 9 9 8 10 7 11
6 7 7 8 7 6 10 14 14 8 10 17 18 18 19 16 15 14 13 11 9 10 9 10 10 9 5 4 5 4 5 6 6 6 8 8 10 10 9 9 8 9 7 10 10 11 7 6 9
10 11 8 10 7 5 7 18 14 11 14 13 15 19 19 23 22 18 16 13 12 11 10 9 9 7 6 8 8 8 7 4 3 5 6 8 10 10 10 10 8 8 8 8 9 10 11 7 7
10 12 9 7 4 7 2 16 8 7 13 10 14 16 16 16 16 17 17 14 13 11 10 10 9 9 8 8 7 5 4 4 3 4 5 6 9 9 9 9 8 9 7 8 8 9 8 8 7
4 4 9 8 6 4 7 8 1 1 5 10 8 11 13 15 18 19 18 15 12 11 10 10 10 10 9 8 9 8 8 7 5 5 6 7 7 9 9 9 8 8 7 8 9 10 10 7 6
2 3 4 3 2 11 9 11 25 11 12 2 4 7 13 16 17 17 16 15 13 11 11 11 13 12 10 9 9 9 11 9 7 6 5 5 5 5 9 8 8 8 8 8 8 9 10 8 7
6 5 3 5 6 10 10 13 21 2 3 3 4 9 14 15 17 19 20 17 15 15 13 11 11 11 9 9 9 9 8 8 8 6 5 5 4 4 6 6 8 7 8 8 8 9 8 8 6
14 11 8 7 9 13 3 13 7 2 3 4 4 7 11 13 13 17 19 18 16 14 13 10 9 10 9 9 10 10 10 5 6 6 5 5 4 4 5 5 7 8 8 8 7 7 6 7 5
9 12 12 7 3 7 7 6 4 1 2 1 3 7 10 13 15 18 19 16 16 15 13 12 12 11 10 10 8 9 8 8 8 7 5 5 5 5 5 5 7 7 8 8 7 6 7 6 7
5 3 5 4 10 16 14 7 8 5 8 2 4 5 7 10 12 15 16 15 14 13 11 11 10 12 11 9 8 8 8 8 8 6 6 5 6 6 5 6 7 7 7 7 7 6 7 7 7
4 5 4 3 5 7 11 6 6 7 1 2 3 4 6 10 13 15 15 12 13 13 13 12 12 13 12 11 10 9 8 8 7 6 5 6 6 6 5 6 7 7 7 7 6 7 7 7 7
7 3 4 4 8 2 5 8 7 10 9 13 11 4 7 9 9 10 10 13 14 14 15 14 12 12 12 12 12 11 9 8 7 6 6 5 6 6 6 6 6 7 6 7 7 7 7 8 8
Wind_Direction
359 74 162 54 233 253 160 173 297 159 150 109 124 149 118 42 27 72 83 51 121 119 125 121 97 84 103 113 107 101 94 86 89 92 99 109 120 126 131 137 141 143 150 159 159 160 151 130 117
17 202 72 88 260 200 158 260 183 168 106 117 89 89 62 78 56 93 100 84 98 96 91 86 88 96 110 108 108 112 109 100 94 99 107 116 122 127 135 144 151 151 157 164 167 169 156 140 130
139 34 34 82 112 194 175 233 130 139 129 120 109 48 71 39 65 67 84 98 92 84 82 78 78 81 83 84 99 93 105 100 90 94 96 102 112 125 134 147 161 157 166 173 174 165 156 157 153
48 85 96 230 230 211 212 351 151 146 58 50 110 83 88 40 16 88 104 98 88 80 75 69 71 85 88 85 83 85 83 90 93 85 81 77 81 109 140 177 215 213 196 204 212 191 182 177 176
41 78 96 153 259 265 261 265 162 150 121 139 140 126 75 51 73 77 89 89 93 87 79 73 65 69 71 77 76 76 76 76 73 75 77 81 94 105 92 287 288 286 275 247 236 227 225 205 205
75 84 155 214 233 272 277 202 179 155 126 140 120 110 119 71 103 84 96 90 82 83 82 82 80 76 76 81 82 82 80 77 72 64 64 62 59 54 52 47 19 297 276 277 284 266 244 226 221
118 116 195 221 236 284 173 199 193 164 139 170 135 110 122 124 110 112 100 90 79 73 76 76 84 87 80 82 81 80 76 70 66 66 68 65 56 65 65 59 47 29 344 321 301 292 275 247 224
103 92 166 221 202 243 215 173 169 165 150 105 38 171 170 168 141 120 103 93 84 72 71 74 83 90 90 86 76 68 65 63 61 70 79 81 70 69 65 58 51 51 48 48 34 8 328 305 276
143 107 201 236 176 207 204 152 166 75 133 71 25 337 118 134 138 127 116 105 102 79 63 69 84 93 98 88 78 72 64 61 52 53 50 61 73 75 72 51 41 41 30 34 31 25 4 339 274
120 175 215 242 221 315 344 163 144 154 143 86 80 94 132 138 153 147 147 133 121 104 78 72 86 90 87 84 73 68 62 57 48 46 42 52 62 64 60 44 35 30 19 14 17 25 357 328 318
153 204 189 258 258 295 289 210 145 138 195 193 185 158 157 152 159 152 142 133 122 104 90 79 91 93 96 87 80 71 61 64 56 46 42 46 43 41 42 27 24 14 7 8 9 4 352 332 331
250 241 202 282 1 304 191 162 193 188 199 224 172 165 159 166 165 161 153 148 139 117 91 72 82 90 86 90 81 80 74 68 60 49 40 46 45 30 47 43 27 20 6 3 358 351 339 324 318
233 290 296 277 294 258 300 204 244 221 67 131 145 162 172 166 161 159 150 137 134 119 110 92 99 96 95 89 89 81 75 70 69 61 50 51 54 49 41 44 32 31 16 14 355 344 339 331 330
301 279 280 287 268 266 207 191 184 213 138 147 161 171 173 172 167 153 162 152 140 124 116 111 99 97 98 93 93 88 79 78 69 59 50 53 56 49 47 41 35 24 14 2 353 347 334 326 327
283 299 314 229 240 230 178 245 205 165 171 168 175 172 171 173 163 168 159 147 134 115 121 111 104 99 95 93 86 79 70 68 65 61 50 46 42 47 45 39 29 16 8 2 355 353 339 330 325
294 8 297 280 175 244 198 253 246 177 172 186 181 179 178 173 173 163 149 138 130 128 118 114 112 107 98 96 90 84 74 69 61 57 51 43 44 37 43 38 27 14 10 4 1 355 340 334 331
347 241 221 294 193 140 203 259 209 184 201 196 191 187 180 170 169 157 146 139 138 129 129 123 120 111 105 98 92 84 76 68 61 52 52 40 39 39 46 41 30 15 16 16 1 356 354 330 330
202 225 232 249 142 144 197 257 261 212 203 207 195 191 188 182 178 155 148 141 139 133 125 128 125 120 114 109 102 90 78 68 60 54 49 46 39 41 45 48 36 26 29 22 9 357 352 336 336
205 239 272 261 272 326 259 260 268 191 211 201 192 195 197 191 166 156 148 143 133 130 132 139 134 135 142 141 125 103 97 87 73 63 50 49 43 39 41 39 29 23 29 23 20 1 353 355 349
230 246 243 282 270 215 268 261 259 203 211 208 201 199 200 183 172 163 155 153 151 137 132 138 141 152 150 130 115 120 115 87 81 69 58 48 49 40 47 38 32 27 23 25 25 20 1 1 7
219 219 230 251 312 255 275 266 240 228 212 212 215 211 202 193 179 168 163 156 148 144 143 148 153 153 137 124 117 109 107 103 88 69 67 49 48 43 40 43 43 37 30 25 23 23 20 4 15
249 215 211 225 239 266 334 291 245 222 215 205 210 204 206 193 175 168 161 158 157 146 141 139 138 127 125 143 144 157 131 128 99 87 73 65 53 49 49 48 47 45 39 35 22 31 23 10 16
241 185 204 213 223 289 228 269 176 85 249 249 206 202 194 184 179 173 167 160 151 148 145 137 133 134 148 156 150 134 119 117 120 99 84 66 59 48 42 46 45 47 37 34 35 34 32 24 16
157 120 66 58 144 253 203 222 277 247 240 148 107 170 182 178 177 167 160 155 154 152 154 152 149 149 151 148 140 133 135 136 132 118 101 74 55 42 39 38 49 39 36 32 34 39 34 30 33
179 160 189 216 198 255 174 208 259 132 200 216 211 196 183 177 173 170 165 166 167 172 165 164 161 148 144 132 114 111 114 113 103 90 79 89 66 50 43 34 43 42 39 35 41 41 38 33 29
213 202 208 237 225 257 168 236 239 354 340 341 347 173 166 170 178 177 170 174 180 171 166 162 151 134 125 118 121 126 125 119 112 107 115 96 80 45 43 42 50 45 40 36 37 57 32 32 30
206 220 236 265 210 273 234 256 246 264 247 67 101 145 168 177 183 183 181 178 177 174 167 162 153 143 137 133 136 123 123 122 113 113 106 101 106 86 53 48 56 44 40 32 25 41 46 35 22
197 151 191 208 232 235 245 258 264 232 233 161 189 192 197 194 191 192 187 178 176 174 165 161 153 146 141 144 133 130 128 116 117 114 106 102 88 83 78 62 62 54 47 40 29 32 29 35 34
174 222 233 259 231 253 261 245 345 285 298 353 323 256 225 209 201 198 191 179 174 168 162 158 155 153 148 153 136 127 127 120 112 114 114 99 98 88 79 68 66 61 56 48 46 45 27 28 28
73 48 34 234 229 259 277 256 29 40 64 43 18 312 240 219 216 213 186 171 172 172 169 162 161 164 164 152 140 137 128 133 137 132 106 104 105 93 77 71 79 68 58 49 53 54 41 29 26